THOR ABLESTAR DEB, 406

Orbit data source: Space-Track

THOR ABLESTAR DEB, 406 is space debris in LEO originally from a launch on Thu, 29 Jun 1961 UTC launched from the Air Force Eastern Test Range (AFETR). Debris objects in space refer to the collection of defunct objects orbiting the Earth. Examples of debris include non-operational satellites, rocket bodies, and fragments generated from explosions, collisions, or faulty payload assembly.

Loading next visibility...
Identifier
406, 1961-015EF
Orbit
LEO
Country
Flag of USUS
Related business
Manufacturer
Unknown
Mission
Spacecraft
Bus & Motor
Unknown
Mass
Unknown
Launch date (UTC)
1961-06-29 (64 years ago)
Launch vehicle
Unknown
Launch site
Air Force Eastern Test Range (AFETR)
Object type
Payload
Rocket body
Debris
Shape & HBR
Unknown shape, 0.1 m
Radar Cross Section
Small (<0.1 m²)

Expand to show TLE details & history
Last TLE update: 7 hours ago

TLE from 7 hours ago
0 THOR ABLESTAR DEB
1   406U 61015EF  25290.83131895  .00000516  00000-0  64282-3 0  9996
2   406  66.7774 204.7431 0121850 200.9990 221.3288 13.69316234188018
Epoch: 2025-10-17T19:57Z
TLE epoch observation values (Epoch: 2025-10-17T19:57:05.957Z)
Latitude
53.91568°
Longitude
-85.24891°
Altitude
1,078.048 km
Speed
7.285 km/s
True Right ascension
16h 02m 23s
True Declination
53° 45' 32"
Sunlit
Object was in daylight at epoch
Visualization orbit readout
Latitude
Unknown
Longitude
Unknown
Altitude
Unknown
Speed
Unknown
Apparent Right ascension
Unknown
Apparent Declination
Unknown
Sunlit
N/A
Visualization observer readout
Local Sidereal Time
21:41:35
Azimuth
Unknown
Elevation
Unknown
Doppler factor
Unknown
Orbital elements
Apogee altitude
1,090.347 km
Perigee altitude
910.531 km
Semi-major axis
7,378.576 km
Eccentricity
0.01219
Inclination
66.7774°
RAAN
204.7431°
Arg. of periapsis
200.999°
True anomaly
220.41718°
Mean anomaly
221.3288°
Eccentric anomaly
220.87195°
Mean motion
3.4244 °/min
Orbital period
105.13 mins
BSTAR
0.00064282

Documentation

Showing up to 5 results
|